Location: Peterborough
(44.3091°N, 78.3197°W)
Time: 23:47:05
(UTC-05:00)

A-11 Canister half - Pass Details

Date: 17 December 2023
Orbit: 1512 x 1687 km, 47.2° (Epoch: 24 February)

Event Time Altitude Azimuth Distance (km) Brightness Sun altitude
Exits shadow 02:44:43 20° 128° (SE) 3,202 10.8 -52.0°
Drops below altitude 10° 02:47:05 10° 126° (SE) 3,920 11.3 -51.6°
Sets 02:50:16 0° 124° (SE) 4,919 12.0 -51.1°
